Home > Weather > Ellwangen (Jagst) > Past weeks

Flag for Germany Weather for the Past 2 Weeks in Ellwangen (Jagst), Baden-Württemberg, Germany

Now
59 °F

Passing clouds.


Feels Like: 60 °F
Forecast: 47 / 69 °F
Wind: 3 mph from East

Location: Niederstetten

Current Time: May 6, 2016 at 11:29:49 PM

Latest Report: May 6, 2016 at 10:20 PM


Visibility: N/A

Pressure: 29.95 "Hg

Humidity: 48%

Dew Point: 39 °F

Location of Ellwangen (Jagst)Location

Historic Weather in Ellwangen (Jagst) — Graph

°F

Ellwangen (Jagst) Temperature Yesterday

Maximum temperature yesterday: 63 °F (at 5:20 PM)
Minimum temperature yesterday: 37 °F (at 5:20 AM)
Average temperature yesterday: 50 °F

High & Low Weather Summary for the Past Weeks

 TemperatureHumidityPressure
High70 °F (May 6, 3:20 PM)100% (Apr 26, 7:20 AM)30.36 "Hg (Apr 26, 7:20 AM)
Low30 °F (Apr 24, 6:20 AM)30% (May 4, 6:20 PM)29.50 "Hg (Apr 26, 5:20 AM)
Average45 °F71%29.97 "Hg
* Reported Apr 21 9:20 PM — May 6 9:20 PM, Ellwangen (Jagst), Weather by CustomWeather, © 2016

Note: Actual official high and low records may vary slightly from our data, if they occured in-between our weather recording intervals... More about our weather records

Advertising

Ellwangen (Jagst) Weather History for the Previous 24 Hours

Scroll right to see more
 ConditionsComfort  
Time TempWeatherWind HumidityBarometerVisibility
9:20 PM
Fri, May 6
61 °FPassing clouds.5 mph48%29.95 "HgN/A
8:20 PM63 °FPassing clouds.6 mph45%29.95 "HgN/A
7:20 PM68 °FPassing clouds.7 mph38%29.95 "HgN/A
6:20 PM70 °FPassing clouds.7 mph38%29.95 "HgN/A
5:20 PM70 °FPassing clouds.10 mph40%29.95 "HgN/A
4:20 PM70 °FPassing clouds.8 mph38%29.98 "HgN/A
3:20 PM70 °FPassing clouds.9 mph40%29.98 "HgN/A
2:20 PM68 °FScattered clouds.7 mph46%30.01 "HgN/A
1:20 PM66 °FPartly sunny.8 mph52%30.04 "HgN/A
12:20 PM66 °FPartly sunny.6 mph52%30.04 "HgN/A
11:20 AM63 °FPartly sunny.8 mph64%30.04 "HgN/A
10:20 AM59 °FPartly sunny.8 mph68%30.07 "HgN/A
9:20 AM57 °FScattered clouds.10 mph63%30.07 "HgN/A
8:20 AM54 °FScattered clouds.10 mph72%30.07 "HgN/A
7:20 AM50 °FPassing clouds.8 mph82%30.07 "HgN/A
6:20 AM48 °FPassing clouds.9 mph82%30.07 "HgN/A
5:20 AM48 °FPassing clouds.8 mph82%30.07 "HgN/A
4:20 AM48 °FCool.9 mph82%30.07 "HgN/A
3:20 AM48 °FCool.10 mph82%30.07 "HgN/A
2:20 AM48 °FCool.9 mph82%30.07 "HgN/A
1:20 AM46 °FCool.8 mph82%30.09 "HgN/A
12:20 AM46 °FCool.8 mph87%30.09 "HgN/A
11:20 PM
Thu, May 5
50 °FCool.7 mph76%30.12 "HgN/A
Weather by CustomWeather, © 2016

See weather overviewHow to use our weather pages